����������;��������(kWh)
2019-01-28 00:00;100,55
2019-01-28 00:15;102
2019-01-28 00:30;101,7
2019-01-28 00:45;100,15
2019-01-28 01:00;99,55
2019-01-28 01:15;99,9
2019-01-28 01:30;100,25
2019-01-28 01:45;98,35
2019-01-28 02:00;98,4
2019-01-28 02:15;98,95
2019-01-28 02:30;97
2019-01-28 02:45;97,8
2019-01-28 03:00;97,45
2019-01-28 03:15;100,2
2019-01-28 03:30;102
2019-01-28 03:45;105,8
2019-01-28 04:00;106,3
2019-01-28 04:15;106,2
2019-01-28 04:30;104,5
2019-01-28 04:45;106,4
2019-01-28 05:00;108,7
2019-01-28 05:15;107,05
2019-01-28 05:30;113,35
2019-01-28 05:45;128,15
2019-01-28 06:00;128,05
2019-01-28 06:15;129,4
2019-01-28 06:30;130,2
2019-01-28 06:45;125,05
2019-01-28 07:00;119,65
2019-01-28 07:15;125,3
2019-01-28 07:30;178,3
2019-01-28 07:45;196,6
2019-01-28 08:00;201,3
2019-01-28 08:15;175,4
2019-01-28 08:30;174,15
2019-01-28 08:45;211,85
2019-01-28 09:00;208,35
2019-01-28 09:15;236
2019-01-28 09:30;237,25
2019-01-28 09:45;254,75
2019-01-28 10:00;237,95
2019-01-28 10:15;255,7
2019-01-28 10:30;247,1
2019-01-28 10:45;279,1
2019-01-28 11:00;287,9
2019-01-28 11:15;290,9
2019-01-28 11:30;296,7
2019-01-28 11:45;283,5
2019-01-28 12:00;288,8
2019-01-28 12:15;278,25
2019-01-28 12:30;290,45
2019-01-28 12:45;270,5
2019-01-28 13:00;281,15
2019-01-28 13:15;282,65
2019-01-28 13:30;267,2
2019-01-28 13:45;277,2
2019-01-28 14:00;275,8
2019-01-28 14:15;263,2
2019-01-28 14:30;272,15
2019-01-28 14:45;258,75
2019-01-28 15:00;243,85
2019-01-28 15:15;245,95
2019-01-28 15:30;238,05
2019-01-28 15:45;239,05
2019-01-28 16:00;222,2
2019-01-28 16:15;226,45
2019-01-28 16:30;220,25
2019-01-28 16:45;208,6
2019-01-28 17:00;212,8
2019-01-28 17:15;190,15
2019-01-28 17:30;185,6
2019-01-28 17:45;177,7
2019-01-28 18:00;176,05
2019-01-28 18:15;174,15
2019-01-28 18:30;170,95
2019-01-28 18:45;174,1
2019-01-28 19:00;174,3
2019-01-28 19:15;172,85
2019-01-28 19:30;160,25
2019-01-28 19:45;155,4
2019-01-28 20:00;143,05
2019-01-28 20:15;138,4
2019-01-28 20:30;130,25
2019-01-28 20:45;132,1
2019-01-28 21:00;131,55
2019-01-28 21:15;123,75
2019-01-28 21:30;122,25
2019-01-28 21:45;118,35
2019-01-28 22:00;111,25
2019-01-28 22:15;110,8
2019-01-28 22:30;108,7
2019-01-28 22:45;107,95
2019-01-28 23:00;111,1
2019-01-28 23:15;109,35
2019-01-28 23:30;113,15
2019-01-28 23:45;111,2
2019-01-29 00:00;102,85
2019-01-29 00:15;104,5
2019-01-29 00:30;103,75
2019-01-29 00:45;104
2019-01-29 01:00;102,35
2019-01-29 01:15;102,1
2019-01-29 01:30;101,05
2019-01-29 01:45;101,6
2019-01-29 02:00;100,85
2019-01-29 02:15;99,85
2019-01-29 02:30;100,5
2019-01-29 02:45;96,85
2019-01-29 03:00;96,75
2019-01-29 03:15;100,35
2019-01-29 03:30;94,55
2019-01-29 03:45;94,65
2019-01-29 04:00;105,4
2019-01-29 04:15;110,5
2019-01-29 04:30;105,95
2019-01-29 04:45;106,15
2019-01-29 05:00;106,25
2019-01-29 05:15;105,65
2019-01-29 05:30;103,1
2019-01-29 05:45;103,35
2019-01-29 06:00;123,7
2019-01-29 06:15;127,2
2019-01-29 06:30;129,55
2019-01-29 06:45;129,15
2019-01-29 07:00;124,65
2019-01-29 07:15;119,05
2019-01-29 07:30;168,9
2019-01-29 07:45;193,35
2019-01-29 08:00;155,1
2019-01-29 08:15;147,35
2019-01-29 08:30;170,6
2019-01-29 08:45;171,7
2019-01-29 09:00;204,95
2019-01-29 09:15;197,25
2019-01-29 09:30;218,85
2019-01-29 09:45;214
2019-01-29 10:00;232,35
2019-01-29 10:15;240,25
2019-01-29 10:30;243,05
2019-01-29 10:45;249,8
2019-01-29 11:00;278,45
2019-01-29 11:15;257,45
2019-01-29 11:30;264,5
2019-01-29 11:45;262,7
2019-01-29 12:00;249,05
2019-01-29 12:15;247,75
2019-01-29 12:30;264,7
2019-01-29 12:45;255,45
2019-01-29 13:00;241,7
2019-01-29 13:15;258,1
2019-01-29 13:30;235,4
2019-01-29 13:45;235,2
2019-01-29 14:00;241,55
2019-01-29 14:15;223,3
2019-01-29 14:30;232,4
2019-01-29 14:45;214,85
2019-01-29 15:00;225,2
2019-01-29 15:15;205,05
2019-01-29 15:30;217,3
2019-01-29 15:45;198,6
2019-01-29 16:00;203,75
2019-01-29 16:15;203,05
2019-01-29 16:30;192,65
2019-01-29 16:45;212,15
2019-01-29 17:00;203,25
2019-01-29 17:15;198,9
2019-01-29 17:30;176,65
2019-01-29 17:45;182,85
2019-01-29 18:00;172,6
2019-01-29 18:15;170,45
2019-01-29 18:30;170,5
2019-01-29 18:45;170,65
2019-01-29 19:00;166,65
2019-01-29 19:15;166,75
2019-01-29 19:30;165,95
2019-01-29 19:45;167,25
2019-01-29 20:00;160,15
2019-01-29 20:15;156,6
2019-01-29 20:30;145,95
2019-01-29 20:45;145,2
2019-01-29 21:00;148,05
2019-01-29 21:15;138,9
2019-01-29 21:30;129,85
2019-01-29 21:45;125,05
2019-01-29 22:00;122,6
2019-01-29 22:15;120,65
2019-01-29 22:30;120,35
2019-01-29 22:45;118,15
2019-01-29 23:00;127,65
2019-01-29 23:15;116,25
2019-01-29 23:30;108,05
2019-01-29 23:45;109,25
2019-01-30 00:00;99,4
2019-01-30 00:15;98,55
2019-01-30 00:30;97,95
2019-01-30 00:45;100,05
2019-01-30 01:00;103,95
2019-01-30 01:15;106,55
2019-01-30 01:30;109,2
2019-01-30 01:45;111,85
2019-01-30 02:00;110,9
2019-01-30 02:15;111,45
2019-01-30 02:30;107,65
2019-01-30 02:45;105,35
2019-01-30 03:00;98,3
2019-01-30 03:15;98,3
2019-01-30 03:30;99,2
2019-01-30 03:45;100
2019-01-30 04:00;98,8
2019-01-30 04:15;98,6
2019-01-30 04:30;97,95
2019-01-30 04:45;98,15
2019-01-30 05:00;99
2019-01-30 05:15;98,15
2019-01-30 05:30;94,25
2019-01-30 05:45;95,1
2019-01-30 06:00;94,9
2019-01-30 06:15;114
2019-01-30 06:30;120,45
2019-01-30 06:45;122,2
2019-01-30 07:00;119,9
2019-01-30 07:15;120,9
2019-01-30 07:30;158,65
2019-01-30 07:45;173,75
2019-01-30 08:00;128,05
2019-01-30 08:15;115,9
2019-01-30 08:30;130,1
2019-01-30 08:45;116,8
2019-01-30 09:00;124
2019-01-30 09:15;132,1
2019-01-30 09:30;129,05
2019-01-30 09:45;142,35
2019-01-30 10:00;135,55
2019-01-30 10:15;135,75
2019-01-30 10:30;148,7
2019-01-30 10:45;154,15
2019-01-30 11:00;148,15
2019-01-30 11:15;158,85
2019-01-30 11:30;145,95
2019-01-30 11:45;154,2
2019-01-30 12:00;162,25
2019-01-30 12:15;163,5
2019-01-30 12:30;165,05
2019-01-30 12:45;166,7
2019-01-30 13:00;166,5
2019-01-30 13:15;165,9
2019-01-30 13:30;163,85
2019-01-30 13:45;165,25
2019-01-30 14:00;164,5
2019-01-30 14:15;163
2019-01-30 14:30;170,85
2019-01-30 14:45;164,95
2019-01-30 15:00;156,15
2019-01-30 15:15;154,6
2019-01-30 15:30;152,75
2019-01-30 15:45;151,35
2019-01-30 16:00;150,15
2019-01-30 16:15;148,6
2019-01-30 16:30;144,8
2019-01-30 16:45;147,65
2019-01-30 17:00;148,85
2019-01-30 17:15;146,85
2019-01-30 17:30;146,65
2019-01-30 17:45;148,5
2019-01-30 18:00;147,65
2019-01-30 18:15;148,4
2019-01-30 18:30;147,5
2019-01-30 18:45;150,4
2019-01-30 19:00;150,65
2019-01-30 19:15;148,55
2019-01-30 19:30;143,9
2019-01-30 19:45;144,4
2019-01-30 20:00;134,5
2019-01-30 20:15;123,65
2019-01-30 20:30;127,4
2019-01-30 20:45;124,6
2019-01-30 21:00;128,1
2019-01-30 21:15;120,6
2019-01-30 21:30;113
2019-01-30 21:45;105,2
2019-01-30 22:00;106,8
2019-01-30 22:15;105,85
2019-01-30 22:30;102,45
2019-01-30 22:45;102,3
2019-01-30 23:00;112,75
2019-01-30 23:15;105,85
2019-01-30 23:30;107,9
2019-01-30 23:45;110,35
2019-01-31 00:00;99,9
2019-01-31 00:15;98,55
2019-01-31 00:30;101,65
2019-01-31 00:45;102,35
2019-01-31 01:00;99,2
2019-01-31 01:15;96,1
2019-01-31 01:30;105,1
2019-01-31 01:45;109,15
2019-01-31 02:00;106,7
2019-01-31 02:15;111,4
2019-01-31 02:30;110,75
2019-01-31 02:45;110,4
2019-01-31 03:00;110,3
2019-01-31 03:15;109,65
2019-01-31 03:30;104,05
2019-01-31 03:45;103,4
2019-01-31 04:00;102
2019-01-31 04:15;100,5
2019-01-31 04:30;99,9
2019-01-31 04:45;100,2
2019-01-31 05:00;98,95
2019-01-31 05:15;97,35
2019-01-31 05:30;101
2019-01-31 05:45;101,25
2019-01-31 06:00;102,6
2019-01-31 06:15;100,25
2019-01-31 06:30;97,45
2019-01-31 06:45;117,05
2019-01-31 07:00;128
2019-01-31 07:15;135
2019-01-31 07:30;184,1
2019-01-31 07:45;205,4
2019-01-31 08:00;185,6
2019-01-31 08:15;155,8
2019-01-31 08:30;175,85
2019-01-31 08:45;181,7
2019-01-31 09:00;198,55
2019-01-31 09:15;222,4
2019-01-31 09:30;239
2019-01-31 09:45;235,8
2019-01-31 10:00;261,95
2019-01-31 10:15;265,45
2019-01-31 10:30;281,75
2019-01-31 10:45;298,65
2019-01-31 11:00;293,45
2019-01-31 11:15;316,35
2019-01-31 11:30;309
2019-01-31 11:45;299,6
2019-01-31 12:00;306,4
2019-01-31 12:15;310,2
2019-01-31 12:30;299,1
2019-01-31 12:45;295,15
2019-01-31 13:00;290,75
2019-01-31 13:15;281,3
2019-01-31 13:30;273,65
2019-01-31 13:45;272,35
2019-01-31 14:00;266,7
2019-01-31 14:15;265,85
2019-01-31 14:30;258,55
2019-01-31 14:45;258,4
2019-01-31 15:00;310,4
2019-01-31 15:15;302,35
2019-01-31 15:30;252,15
2019-01-31 15:45;233,4
2019-01-31 16:00;240,2
2019-01-31 16:15;220,4
2019-01-31 16:30;215,7
2019-01-31 16:45;213,6
2019-01-31 17:00;216,85
2019-01-31 17:15;202,4
2019-01-31 17:30;198,9
2019-01-31 17:45;188,15
2019-01-31 18:00;202,8
2019-01-31 18:15;189,2
2019-01-31 18:30;181,45
2019-01-31 18:45;176,6
2019-01-31 19:00;175,35
2019-01-31 19:15;168,05
2019-01-31 19:30;165,5
2019-01-31 19:45;155,4
2019-01-31 20:00;151,7
2019-01-31 20:15;154,45
2019-01-31 20:30;138,45
2019-01-31 20:45;136,35
2019-01-31 21:00;130,15
2019-01-31 21:15;125,5
2019-01-31 21:30;122,15
2019-01-31 21:45;121
2019-01-31 22:00;112,9
2019-01-31 22:15;107,8
2019-01-31 22:30;106,9
2019-01-31 22:45;104,75
2019-01-31 23:00;108,55
2019-01-31 23:15;109,15
2019-01-31 23:30;109,4
2019-01-31 23:45;116,65
2019-02-01 00:00;104,8
2019-02-01 00:15;103,6
2019-02-01 00:30;105,3
2019-02-01 00:45;105,15
2019-02-01 01:00;104,75
2019-02-01 01:15;102,4
2019-02-01 01:30;101,35
2019-02-01 01:45;108,45
2019-02-01 02:00;111,05
2019-02-01 02:15;114,15
2019-02-01 02:30;111,4
2019-02-01 02:45;112,35
2019-02-01 03:00;113,55
2019-02-01 03:15;114,7
2019-02-01 03:30;108,4
2019-02-01 03:45;109,3
2019-02-01 04:00;127,7
2019-02-01 04:15;126,3
2019-02-01 04:30;130,9
2019-02-01 04:45;127,35
2019-02-01 05:00;122,35
2019-02-01 05:15;121,15
2019-02-01 05:30;119,3
2019-02-01 05:45;113,9
2019-02-01 06:00;114,35
2019-02-01 06:15;114,65
2019-02-01 06:30;116,65
2019-02-01 06:45;116,7
2019-02-01 07:00;117
2019-02-01 07:15;122,3
2019-02-01 07:30;174,8
2019-02-01 07:45;200,7
2019-02-01 08:00;184,6
2019-02-01 08:15;169,25
2019-02-01 08:30;192,2
2019-02-01 08:45;179,1
2019-02-01 09:00;187,2
2019-02-01 09:15;205,15
2019-02-01 09:30;209,15
2019-02-01 09:45;208
2019-02-01 10:00;212,35
2019-02-01 10:15;220,1
2019-02-01 10:30;219,35
2019-02-01 10:45;221,3
2019-02-01 11:00;253,4
2019-02-01 11:15;289,25
2019-02-01 11:30;247,15
2019-02-01 11:45;252,75
2019-02-01 12:00;239
2019-02-01 12:15;230,5
2019-02-01 12:30;237,5
2019-02-01 12:45;244,85
2019-02-01 13:00;248,55
2019-02-01 13:15;252,4
2019-02-01 13:30;242
2019-02-01 13:45;249,45
2019-02-01 14:00;227,8
2019-02-01 14:15;227,2
2019-02-01 14:30;234,2
2019-02-01 14:45;207,55
2019-02-01 15:00;211,7
2019-02-01 15:15;204
2019-02-01 15:30;204,95
2019-02-01 15:45;199,3
2019-02-01 16:00;177,9
2019-02-01 16:15;187,45
2019-02-01 16:30;180,6
2019-02-01 16:45;170
2019-02-01 17:00;176,15
2019-02-01 17:15;156,7
2019-02-01 17:30;155,2
2019-02-01 17:45;152,05
2019-02-01 18:00;169,5
2019-02-01 18:15;154,2
2019-02-01 18:30;170,8
2019-02-01 18:45;156,25
2019-02-01 19:00;154,5
2019-02-01 19:15;156,75
2019-02-01 19:30;142,95
2019-02-01 19:45;150,7
2019-02-01 20:00;148,5
2019-02-01 20:15;137,85
2019-02-01 20:30;150,6
2019-02-01 20:45;133,65
2019-02-01 21:00;130,65
2019-02-01 21:15;143,3
2019-02-01 21:30;126,45
2019-02-01 21:45;112,15
2019-02-01 22:00;113,5
2019-02-01 22:15;101,5
2019-02-01 22:30;111,8
2019-02-01 22:45;100,4
2019-02-01 23:00;105,05
2019-02-01 23:15;114,6
2019-02-01 23:30;102,2
2019-02-01 23:45;109,85
2019-02-02 00:00;102,15
2019-02-02 00:15;93,9
2019-02-02 00:30;103,1
2019-02-02 00:45;103,45
2019-02-02 01:00;93,4
2019-02-02 01:15;106,6
2019-02-02 01:30;93,1
2019-02-02 01:45;92,6
2019-02-02 02:00;105,6
2019-02-02 02:15;90,05
2019-02-02 02:30;94,1
2019-02-02 02:45;105,2
2019-02-02 03:00;93,45
2019-02-02 03:15;97,3
2019-02-02 03:30;99,15
2019-02-02 03:45;91,1
2019-02-02 04:00;97,8
2019-02-02 04:15;95,7
2019-02-02 04:30;89,7
2019-02-02 04:45;102,05
2019-02-02 05:00;89,75
2019-02-02 05:15;87,65
2019-02-02 05:30;102
2019-02-02 05:45;86,6
2019-02-02 06:00;88,75
2019-02-02 06:15;102,5
2019-02-02 06:30;87,95
2019-02-02 06:45;90,9
2019-02-02 07:00;99,6
2019-02-02 07:15;87,95
2019-02-02 07:30;97,25
2019-02-02 07:45;84,8
2019-02-02 08:00;82,45
2019-02-02 08:15;95,65
2019-02-02 08:30;83,4
2019-02-02 08:45;81,65
2019-02-02 09:00;92,95
2019-02-02 09:15;82,3
2019-02-02 09:30;80,15
2019-02-02 09:45;96,45
2019-02-02 10:00;82,7
2019-02-02 10:15;80,3
2019-02-02 10:30;91,7
2019-02-02 10:45;79,7
2019-02-02 11:00;85,15
2019-02-02 11:15;97,45
2019-02-02 11:30;84,25
2019-02-02 11:45;91,45
2019-02-02 12:00;93,8
2019-02-02 12:15;84,75
2019-02-02 12:30;87
2019-02-02 12:45;96
2019-02-02 13:00;82,9
2019-02-02 13:15;87,75
2019-02-02 13:30;88,2
2019-02-02 13:45;83,7
2019-02-02 14:00;86,8
2019-02-02 14:15;89,5
2019-02-02 14:30;85,95
2019-02-02 14:45;86,3
2019-02-02 15:00;90,8
2019-02-02 15:15;83,4
2019-02-02 15:30;84
2019-02-02 15:45;94,05
2019-02-02 16:00;85
2019-02-02 16:15;85,5
2019-02-02 16:30;97,2
2019-02-02 16:45;85,5
2019-02-02 17:00;86,05
2019-02-02 17:15;95,85
2019-02-02 17:30;84,7
2019-02-02 17:45;86,9
2019-02-02 18:00;102,95
2019-02-02 18:15;92,25
2019-02-02 18:30;94,1
2019-02-02 18:45;108,65
2019-02-02 19:00;96,5
2019-02-02 19:15;100,15
2019-02-02 19:30;121,5
2019-02-02 19:45;106,4
2019-02-02 20:00;104,5
2019-02-02 20:15;117,35
2019-02-02 20:30;102,3
2019-02-02 20:45;101,8
2019-02-02 21:00;114,8
2019-02-02 21:15;97,35
2019-02-02 21:30;97,75
2019-02-02 21:45;105,05
2019-02-02 22:00;90,4
2019-02-02 22:15;89,95
2019-02-02 22:30;104,45
2019-02-02 22:45;87,55
2019-02-02 23:00;93,05
2019-02-02 23:15;104,05
2019-02-02 23:30;93,25
2019-02-02 23:45;96,4
2019-02-03 00:00;100
2019-02-03 00:15;87,8
2019-02-03 00:30;86,9
2019-02-03 00:45;100,05
2019-02-03 01:00;85,85
2019-02-03 01:15;85,3
2019-02-03 01:30;99,4
2019-02-03 01:45;87,1
2019-02-03 02:00;86,05
2019-02-03 02:15;97,2
2019-02-03 02:30;88,45
2019-02-03 02:45;86,85
2019-02-03 03:00;96,55
2019-02-03 03:15;86,75
2019-02-03 03:30;88,1
2019-02-03 03:45;98,8
2019-02-03 04:00;85,65
2019-02-03 04:15;84,2
2019-02-03 04:30;97,9
2019-02-03 04:45;86,7
2019-02-03 05:00;87,3
2019-02-03 05:15;96,75
2019-02-03 05:30;82,95
2019-02-03 05:45;84,2
2019-02-03 06:00;98,95
2019-02-03 06:15;83,65
2019-02-03 06:30;81,6
2019-02-03 06:45;94,1
2019-02-03 07:00;81,1
2019-02-03 07:15;79,8
2019-02-03 07:30;89,1
2019-02-03 07:45;77,6
2019-02-03 08:00;78,4
2019-02-03 08:15;92,65
2019-02-03 08:30;81,25
2019-02-03 08:45;78,4
2019-02-03 09:00;90,3
2019-02-03 09:15;77,1
2019-02-03 09:30;79,6
2019-02-03 09:45;90,4
2019-02-03 10:00;76,6
2019-02-03 10:15;76,05
2019-02-03 10:30;87,55
2019-02-03 10:45;77,1
2019-02-03 11:00;77,55
2019-02-03 11:15;88,95
2019-02-03 11:30;78,5
2019-02-03 11:45;79,1
2019-02-03 12:00;88,4
2019-02-03 12:15;92,1
2019-02-03 12:30;84,45
2019-02-03 12:45;92,65
2019-02-03 13:00;89,2
2019-02-03 13:15;85,35
2019-02-03 13:30;88,85
2019-02-03 13:45;101,65
2019-02-03 14:00;88,5
2019-02-03 14:15;83,4
2019-02-03 14:30;94,3
2019-02-03 14:45;83,95
2019-02-03 15:00;83,55
2019-02-03 15:15;96,15
2019-02-03 15:30;82,6
2019-02-03 15:45;81,25
2019-02-03 16:00;88,85
2019-02-03 16:15;78,4
2019-02-03 16:30;80,5
2019-02-03 16:45;91,8
2019-02-03 17:00;83,35
2019-02-03 17:15;82,95
2019-02-03 17:30;86,6
2019-02-03 17:45;87,65
2019-02-03 18:00;85,45
2019-02-03 18:15;85,7
2019-02-03 18:30;100,3
2019-02-03 18:45;89,3
2019-02-03 19:00;91,65
2019-02-03 19:15;103,2
2019-02-03 19:30;93,45
2019-02-03 19:45;90
2019-02-03 20:00;104,8
2019-02-03 20:15;92,5
2019-02-03 20:30;92,1
2019-02-03 20:45;105,65
2019-02-03 21:00;92,95
2019-02-03 21:15;95,7
2019-02-03 21:30;106,7
2019-02-03 21:45;89,3
2019-02-03 22:00;90,2
2019-02-03 22:15;104,2
2019-02-03 22:30;89
2019-02-03 22:45;88,3
2019-02-03 23:00;101,4
2019-02-03 23:15;97,05
2019-02-03 23:30;93,65
2019-02-03 23:45;106,3

